Location: Newark
(33.6333°S, 78.8500°W)
Time: 05:46:42
(UTC+00:00)

Tiros 1 - Visible Passes

Search period start: 18 September 2019 00:00
Search period end: 28 September 2019 00:00
Orbit: 631 x 664 km, 48.4° (Epoch: 17 September)

Date Brightness Start Highest point End Pass type
(mag) Time Alt. Az. Time Alt. Az. Time Alt. Az.
18 Sep 9.4 09:24:45 13° SSW 09:26:11 14° S 09:28:44 10° SSE visible
19 Sep 10.0 08:11:53 13° SSE 08:11:53 13° SSE 08:12:39 10° SSE visible
19 Sep 9.6 09:50:35 10° SSW 09:53:03 14° S 09:55:33 10° SE visible
20 Sep 9.7 08:36:41 14° S 08:36:41 14° S 08:38:41 10° SSE visible
20 Sep 9.5 10:16:45 10° SSW 10:19:53 17° SSE 10:23:01 10° SE visible
21 Sep 9.6 09:01:29 12° SSW 09:02:57 14° S 09:05:23 10° SSE visible
21 Sep 9.1 10:42:33 10° SSW 10:46:33 25° SSE 10:50:32 10° E visible
22 Sep 9.6 09:26:45 10° SSW 09:29:48 16° SSE 09:32:50 10° SE visible
23 Sep 9.9 08:13:31 13° S 08:13:31 13° S 08:15:14 10° SSE visible
23 Sep 9.2 09:52:36 10° SSW 09:56:29 24° SSE 10:00:22 10° ESE visible
24 Sep 9.6 08:38:27 14° S 08:39:42 16° SSE 08:42:38 10° SE visible
24 Sep 8.4 10:18:22 10° SW 10:22:56 41° SSE 10:27:29 10° ENE visible
25 Sep 9.3 09:03:28 14° SSW 09:06:24 22° SSE 09:10:11 10° ESE visible
26 Sep 10.0 07:50:54 14° SSE 07:50:54 14° SSE 07:52:26 10° SE visible
26 Sep 8.5 09:28:35 11° SW 09:32:52 38° SSE 09:37:22 10° E visible
27 Sep 9.3 08:16:10 21° SSE 08:16:19 21° SSE 08:20:01 10° ESE visible
27 Sep 7.3 09:54:17 10° SW 09:59:06 81° SE 10:03:55 10° NE visible
